Location: Noyers
(47.2770°N, 1.4032°E)
Time: 23:39:28
(UTC+00:00)

Tsikada Rocket - Pass Details

Date: 15 May 2026
Orbit: 956 x 1009 km, 82.9° (Epoch: 11 June)

Event Time Altitude Azimuth Distance (km) Brightness Sun altitude
Rises 20:37:41 0° 349° (N) 3,655 8.0 -10.8°
Reaches altitude 10° 20:40:12 10° 348° (NNW) 2,702 7.3 -11.1°
Maximum altitude 20:46:20 72° 265° (W) 1,005 4.2 -11.8°
Drops below altitude 10° 20:52:26 10° 182° (S) 2,683 5.9 -12.5°
Enters shadow 20:53:28 - 181° (S) 3,074 6.2 -12.7°
